Regional Weather Roundup
Issued by NWS Newport/Morehead, NC

Home | Current Version | Previous Version | Text Only | Print | Product List | Glossary On
Versions: 1 2 3 4 5 6 7 8 9 10 11 12 13 14 15 16 17 18 19 20 21 22 23 24 25 26 27 28 29 30 31 32 33 34 35 36 37 38 39 40 41 42 43 44 45 46 47 48 49 50
000
ASUS42 KMHX 011925
RWRMHX
WEATHER ROUNDUP FOR EASTERN NORTH CAROLINA
NATIONAL WEATHER SERVICE NEWPORT/MOREHEAD CITY NC
200 PM EST WED MAR 01 2017

NOTE: "FAIR" INDICATES FEW OR NO CLOUDS BELOW 12,000 FEET
WITH NO SIGNIFICANT WEATHER AND/OR OBSTRUCTIONS TO VISIBILITY

NCZ015>017-031-032-045>047-102-103-012000-
NORTH COAST

CITY           SKY/WX    TMP DP  RH WIND       PRES   REMARKS
EDENTON        CLOUDY    80  62  54 SW17G28   29.85F
ELIZABETH CITY MOSUNNY   80  61  52 SW28G39   29.84F
KITTY HAWK     NOT AVBL
MANTEO         PTSUNNY   73  64  73 SW30G40   29.87F

$$

NCZ045>047-081-094-103-104-012000-
CENTRAL COAST

CITY           SKY/WX    TMP DP  RH WIND       PRES   REMARKS
FRISCO         CLOUDY    74  65  73 SW17G29   29.96F HAZE

$$

NCZ095-097-098-100-101-012000-
SOUTHERN COAST

CITY           SKY/WX    TMP DP  RH WIND       PRES   REMARKS
BEAUFORT       CLOUDY    72  66  81 SW24G32   29.96F
CEDAR ISLAND   NOT AVBL
JACKSONVILLE   CLOUDY    78  67  68 SW10G22   29.94F
PINEY ISLAND   CLOUDY   N/A N/A N/A SW25G38   29.95
WILMINGTON     MOSUNNY   78  66  66 SW14G26   29.97F


$$

NCZ011>013-027>030-043-044-078>080-089-090>093-098-012000-
COASTAL PLAIN

CITY           SKY/WX    TMP DP  RH WIND       PRES   REMARKS
AHOSKIE        CLOUDY    80  60  50 SW13G20   29.82F
CLINTON        CLOUDY    80  63  55 SW13G20   29.92F
ELIZABETHTOWN    N/A     81  60  48 SW22      29.93F
GOLDSBORO      CLOUDY    81  61  51 W25G38    29.88F
GREENVILLE     CLOUDY    81  61  50 W17G31    29.90F
HAVELOCK       PTSUNNY   74  65  73 SW24G40   29.96F
KENANSVILLE    CLOUDY    82  63  51 SW16G24   29.91F
KINSTON        PTSUNNY   81  61  50 SW23G33   29.91F
NEW BERN       PTSUNNY   78  66  66 SW15G26   29.94F
RICHLANDS      CLOUDY    81  64  56 S20G25    29.93F
ROCKY MOUNT    MOSUNNY   80  59  48 SW29G41   29.86F
WASHINGTON     CLOUDY    79  63  56 SW22      29.88F
WHITEVILLE     MOSUNNY   82  60  47 SW12G22   29.94F

$$

AMZ130-135-150-152-154-156-158-170-250-252-270-ANZ085-086-088-633-658-670-012000-
MARINE OBSERVATIONS

STATION/POSITION TIME  TEMP    WIND        PRES    WAVE   SWELL
                       AIR SEA DIR/SP/G            HT/PER HT/PER
                 (UTC) (F)     (DEG/KT/KT) (MB)    (FT/S) (FT/S)
CHESAPEAKE LIGHT NOT AVBL
64 E VA BEACH    1850   61 51  200/ 27/ 33 1010.0    8/ 7
DUCK             1900   73 49  200/ 21/ 31 1009.8
2 E DUCK         NOT AVBL
OREGON INLET     1900   65 62  190/ 24/ 28 1012.7
13E OREGON INLT  NOT AVBL
HATTERAS CG      1900   72 65  210/ 18/ 24 1014.1
DIAMOND BUOY     1850   74 73  210/ 27/ 33 1014.0    9/ 7
CAPE LOOKOUT     1900   69     200/ 18/ 21 1014.6
BEAUFORT LAB     1900   69 63  210/ 16/ 23 1013.9
30 SE NEW RVR IN 1908   68     210/ 19/ 23 1015.3
30 SE NEW RVR IN 1843      64                N/A     6/ 7
27 SE WRIGHTSVLE 1908   68 62  190/ 17/ 25 1014.7
5 SE WRIGHTSVLE  1908   64 60  210/ 12/ 19 1015.4
225 S CAPE HAT   1850   72 71  180/ 16/ 17 1020.6    4/ 5   2/ 8
41 SE CHARLESTON 1850   71 69  220/ 19/ 23 1016.7    5/ 5   2/16

$$



USA.gov is the U.S. government's official web portal to all federal, state and local government web resources and services.